This is the latest recevied weather packets stored in our database for station/object DK6MR. If no packets are shown the sender has not sent any weather packets the latest 10 day(s).
| Time | Temp. | Humidity | Pressure | Rain* | Wind** | Luminosity | Snow |
|---|---|---|---|---|---|---|---|
| 1777400418 | 18.33° C | 33% | 1017.9 hPa | 0 mm | - | - | - |
| 1777399517 | 18.89° C | 32% | 1017.9 hPa | 0 mm | - | - | - |
| 1777398616 | 19.44° C | 32% | 1017.6 hPa | 0 mm | - | - | - |
| 1777397715 | 20° C | 35% | 1017.6 hPa | 0 mm | - | - | - |
| 1777396814 | 20° C | 34% | 1017.6 hPa | 0 mm | - | - | - |
| 1777395913 | 20.56° C | 34% | 1017.2 hPa | 0 mm | - | - | - |
| 1777395012 | 20.56° C | 34% | 1017.2 hPa | 0 mm | - | - | - |
| 1777394111 | 21.11° C | 33% | 1017.2 hPa | 0 mm | - | - | - |
| 1777393211 | 21.11° C | 32% | 1016.9 hPa | 0 mm | - | - | - |
| 1777392310 | 21.11° C | 30% | 1016.9 hPa | 0 mm | - | - | - |
| 1777391409 | 21.11° C | 28% | 1016.9 hPa | 0 mm | - | - | - |
| 1777390508 | 21.67° C | 29% | 1016.9 hPa | 0 mm | - | - | - |
| 1777389607 | 21.67° C | 29% | 1016.9 hPa | 0 mm | - | - | - |
| 1777388706 | 22.22° C | 30% | 1016.9 hPa | 0 mm | - | - | - |
| 1777387805 | 22.22° C | 30% | 1016.9 hPa | 0 mm | - | - | - |
| 1777386904 | 22.22° C | 29% | 1017.2 hPa | 0 mm | - | - | - |
| 1777386002 | 22.22° C | 33% | 1017.2 hPa | 0 mm | - | - | - |
| 1777385102 | 22.22° C | 33% | 1017.2 hPa | 0 mm | - | - | - |
| 1777384200 | 22.22° C | 32% | 1017.2 hPa | 0 mm | - | - | - |
| 1777383299 | 23.33° C | 31% | 1017.2 hPa | 0 mm | - | - | - |
| 1777382398 | 22.78° C | 31% | 1017.2 hPa | 0 mm | - | - | - |
| 1777381497 | 22.22° C | 32% | 1017.6 hPa | 0 mm | - | - | - |
| 1777380596 | 22.22° C | 32% | 1017.6 hPa | 0 mm | - | - | - |
| 1777379695 | 21.67° C | 33% | 1017.6 hPa | 0 mm | - | - | - |
| 1777378794 | 21.11° C | 34% | 1017.6 hPa | 0 mm | - | - | - |
* Rain latest hour (hover to see other rain measurements)
** Current wind speed in m/s (hover to see current wind gust speed)